Latest Weather Observations for Casino

IDN60801

Issued at 8:05 pm EDT Friday 24 October 2014 (issued every 30 minutes, with the page automatically refreshed every 10 minutes)

About weather observations | Map of weather stations | Latest weather observations for NSW | Other Formats
Station Details ID: 058208 Name: CASINO AIRPORT AWS Lat: -28.88 Lon: 153.06 Height: 20.9 m
Data from the previous 72 hours. | See also: Recent months at Casino
Date/Time
EDT
Temp
°C
App
Temp
°C
Dew
Point
Rel
Hum
%
Delta-T
°C
Wind Press
QNH
hPa
Press
MSL
hPa
Rain
since 9 am
mm
Dir
 
Spd
km/h
Gust
km/h
Spd
kts
Gust
kts
24/08:00pm 19.7 18.3 14.5 72 3.0 ESE 15 19 8 10 1019.0 1018.9 0.0
24/07:30pm 20.3 19.2 14.2 68 3.5 E 13 17 7 9 1018.6 1018.5 0.0
24/07:00pm 21.5 19.1 14.4 64 4.1 E 20 26 11 14 1018.6 1018.5 0.0
24/06:30pm 22.7 20.0 14.5 60 4.8 E 22 32 12 17 1018.4 1018.3 0.0
24/06:00pm 23.7 20.7 14.9 57 5.2 E 24 32 13 17 1018.0 1017.9 0.0
24/05:30pm 24.6 21.2 14.7 54 5.9 E 26 32 14 17 1017.8 1017.7 0.0
24/05:00pm 25.6 22.6 14.7 51 6.5 E 24 32 13 17 1017.5 1017.4 0.0
24/04:30pm 27.6 23.5 14.9 45 7.7 E 30 37 16 20 1017.3 1017.2 0.0
24/04:00pm 29.0 25.6 14.8 42 8.6 ENE 26 35 14 19 1017.4 1017.3 0.0
24/03:30pm 29.5 26.9 13.7 38 9.5 ENE 20 30 11 16 1017.8 1017.7 0.0
24/03:00pm 30.3 29.1 12.7 34 10.4 E 11 24 6 13 1018.0 1017.9 0.0
24/02:30pm 30.0 28.4 12.9 35 10.1 ESE 13 22 7 12 1018.5 1018.4 0.0
24/02:00pm 29.3 28.2 13.1 37 9.6 SSE 11 17 6 9 1019.0 1018.9 0.0
24/01:30pm 29.0 27.8 14.0 39 9.0 E 13 24 7 13 1019.4 1019.3 0.0
24/01:00pm 28.2 27.3 13.7 41 8.6 E 11 20 6 11 1020.0 1019.9 0.0
24/12:30pm 28.1 27.8 14.3 42 8.3 E 9 17 5 9 1020.4 1020.3 0.0
24/12:00pm 27.1 26.9 14.8 47 7.4 ENE 9 17 5 9 1020.8 1020.7 0.0
24/11:30am 27.1 27.0 16.1 51 6.8 NE 11 15 6 8 1021.3 1021.2 0.0
24/11:00am 25.0 24.8 14.8 53 6.1 NNE 9 19 5 10 1021.6 1021.5 0.0
24/10:30am 24.5 24.5 15.1 55 5.6 NNE 9 15 5 8 1022.1 1022.0 0.0
24/10:00am 23.2 22.7 15.0 60 4.9 N 11 17 6 9 1022.2 1022.1 0.0
24/09:30am 22.1 21.6 15.9 68 3.7 N 13 17 7 9 1022.4 1022.3 0.0
24/09:00am 20.4 20.9 15.6 74 2.8 NW 7 9 4 5 1022.5 1022.4 0.8
24/08:30am 18.6 19.2 15.7 83 1.7 W 7 9 4 5 1022.5 1022.4 0.8
24/08:00am 16.4 17.7 15.1 92 0.7 NNW 2 7 1 4 1022.1 1022.0 0.8
24/07:30am 14.4 15.5 13.4 94 0.6 CALM 0 0 0 0 1022.1 1022.0 0.8
24/07:00am 12.6 13.1 11.7 94 0.5 CALM 0 0 0 0 1021.9 1021.8 0.8
24/06:30am 11.1 11.2 10.0 93 0.6 CALM 0 0 0 0 1021.5 1021.4 0.8
24/06:00am 11.2 11.3 10.1 93 0.6 SW 0 0 0 0 1021.0 1020.9 0.8
24/05:30am 11.3 11.4 10.2 93 0.6 CALM 0 0 0 0 1020.9 1020.8 0.8
24/05:00am 12.3 12.7 11.2 93 0.6 CALM 0 0 0 0 1020.4 1020.3 0.8
24/04:30am 11.7 10.8 10.6 93 0.6 NNE 6 9 3 5 1020.2 1020.1 0.8
24/04:00am 12.6 13.1 11.5 93 0.6 CALM 0 0 0 0 1020.1 1020.0 0.8
24/03:30am 12.5 12.2 11.4 93 0.6 W 4 6 2 3 1020.2 1020.1 0.8
24/03:00am 12.1 12.4 11.0 93 0.6 CALM 0 0 0 0 1020.3 1020.2 0.8
24/02:30am 12.9 13.5 11.8 93 0.6 CALM 0 0 0 0 1020.1 1020.0 0.8
24/02:00am 13.3 12.8 12.2 93 0.6 N 6 7 3 4 1020.2 1020.1 0.8
24/01:30am 12.9 13.4 11.6 92 0.7 CALM 0 0 0 0 1020.6 1020.5 0.8
24/01:00am 14.1 15.0 13.0 93 0.6 CALM 0 0 0 0 1020.8 1020.7 0.8
24/12:30am 14.8 16.0 13.7 93 0.6 CALM 0 0 0 0 1020.8 1020.7 0.8
24/12:00am 14.8 16.0 13.7 93 0.6 NNE 0 0 0 0 1020.8 1020.7 0.8
 
Date/Time
EDT
Temp
°C
App
Temp
°C
Dew
Point
Rel
Hum
%
Delta-T
°C
Wind Press
QNH
hPa
Press
MSL
hPa
Rain
since 9 am
mm
Dir
 
Spd
km/h
Gust
km/h
Spd
kts
Gust
kts
23/11:30pm 13.9 14.7 12.5 91 0.8 CALM 0 0 0 0 1020.8 1020.7 0.8
23/11:00pm 15.6 17.0 14.3 92 0.7 CALM 0 7 0 4 1020.7 1020.6 0.8
23/10:30pm 15.8 16.7 14.0 89 1.0 NW 2 7 1 4 1020.6 1020.5 0.8
23/10:00pm 16.6 16.9 14.6 88 1.1 W 6 6 3 3 1020.6 1020.5 0.8
23/09:30pm 16.7 18.1 14.3 86 1.4 CALM 0 0 0 0 1020.4 1020.3 0.8
23/09:00pm 17.9 18.3 15.3 85 1.5 S 7 9 4 5 1019.8 1019.7 0.8
23/08:30pm 18.8 19.4 15.7 82 1.8 NE 7 9 4 5 1019.4 1019.3 0.8
23/08:00pm 19.7 20.5 15.8 78 2.3 E 6 9 3 5 1019.0 1018.9 0.8
23/07:30pm 21.5 21.1 15.3 68 3.7 WSW 11 17 6 9 1019.2 1019.1 0.0
23/07:00pm 22.0 21.7 14.4 62 4.4 SSW 9 15 5 8 1019.1 1019.0 0.0
23/06:30pm 22.4 20.0 13.7 58 5.1 ESE 19 22 10 12 1018.2 1018.1 0.0
23/06:00pm 23.1 21.1 13.8 55 5.4 E 17 20 9 11 1017.5 1017.4 0.0
23/05:30pm 24.3 22.4 14.1 53 6.0 E 17 22 9 12 1017.0 1016.9 0.0
23/05:00pm 26.1 23.5 13.9 47 7.2 E 20 24 11 13 1016.6 1016.5 0.0
23/04:30pm 28.3 25.6 13.4 40 8.8 E 20 24 11 13 1016.0 1015.9 0.0
23/04:00pm 28.9 26.8 11.0 33 10.2 E 13 19 7 10 1015.8 1015.7 0.0
23/03:30pm 29.5 26.6 9.6 29 11.2 ESE 15 20 8 11 1015.8 1015.7 0.0
23/03:00pm 29.6 27.6 10.2 30 11.0 NE 11 17 6 9 1015.9 1015.8 0.0
23/02:30pm 29.4 27.1 10.5 31 10.7 NNE 13 19 7 10 1016.6 1016.5 0.0
23/02:00pm 29.0 27.8 11.6 34 10.0 E 9 17 5 9 1017.0 1016.9 0.0
23/01:30pm 28.3 27.6 11.4 35 9.7 ENE 6 13 3 7 1017.8 1017.7 0.0
23/01:00pm 28.7 27.6 13.0 38 9.2 NNE 11 20 6 11 1018.4 1018.3 0.0
23/12:30pm 27.9 26.8 13.1 40 8.7 NNW 11 19 6 10 1019.1 1019.0 0.0
23/12:00pm 26.0 25.5 12.8 44 7.7 NW 7 17 4 9 1019.7 1019.6 0.0
23/11:30am 24.3 22.0 11.9 45 7.0 N 15 24 8 13 1020.5 1020.4 0.0
23/11:00am 23.5 21.3 12.2 49 6.4 NNW 15 22 8 12 1021.0 1020.9 0.0
23/10:30am 23.9 22.1 13.2 51 6.2 NNW 15 22 8 12 1021.5 1021.4 0.0
23/10:00am 22.0 18.6 11.4 51 5.9 N 20 26 11 14 1021.9 1021.8 0.0
23/09:30am 21.2 18.1 12.1 56 5.1 NNW 20 30 11 16 1022.1 1022.0 0.0
23/09:00am 19.4 17.9 11.9 62 4.1 NNW 11 17 6 9 1022.2 1022.1 0.0
23/08:30am 17.3 16.3 12.2 72 2.8 NNW 9 13 5 7 1022.6 1022.5 0.0
23/08:00am 15.3 13.8 11.9 80 1.8 NW 11 15 6 8 1022.6 1022.5 0.0
23/07:30am 13.4 12.2 11.5 88 1.0 NNW 9 11 5 6 1022.5 1022.4 0.0
23/07:00am 11.4 11.2 10.3 93 0.6 WNW 2 6 1 3 1022.4 1022.3 0.0
23/06:30am 10.0 8.6 8.9 93 0.5 W 6 7 3 4 1022.2 1022.1 0.0
23/06:00am 9.7 8.0 8.5 92 0.6 WNW 7 11 4 6 1021.9 1021.8 0.0
23/05:30am 9.5 7.8 8.3 92 0.6 NNW 7 9 4 5 1021.7 1021.6 0.0
23/05:00am 10.3 8.8 9.2 93 0.5 WNW 7 9 4 5 1021.7 1021.6 0.0
23/04:30am 10.2 8.7 9.1 93 0.5 W 7 11 4 6 1021.7 1021.6 0.0
23/04:00am 8.4 7.7 7.0 91 0.6 CALM 0 0 0 0 1021.7 1021.6 0.0
23/03:30am 8.9 8.4 7.7 92 0.6 CALM 0 0 0 0 1021.9 1021.8 0.0
23/03:00am 9.0 8.4 7.6 91 0.7 CALM 0 0 0 0 1022.1 1022.0 0.0
23/02:30am 8.9 7.8 7.0 88 0.9 WNW 2 6 1 3 1022.4 1022.3 0.0
23/02:00am 9.8 8.2 8.2 90 0.8 WNW 6 7 3 4 1022.7 1022.6 0.0
23/01:30am 10.5 9.2 9.3 92 0.6 NW 6 9 3 5 1022.8 1022.7 0.0
23/01:00am 9.7 9.2 8.0 89 0.8 CALM 0 0 0 0 1022.9 1022.8 0.0
23/12:30am 10.3 9.9 8.4 88 0.9 CALM 0 0 0 0 1023.2 1023.1 0.0
23/12:00am 10.4 10.0 8.2 86 1.1 CALM 0 0 0 0 1023.3 1023.2 0.0
 
Date/Time
EDT
Temp
°C
App
Temp
°C
Dew
Point
Rel
Hum
%
Delta-T
°C
Wind Press
QNH
hPa
Press
MSL
hPa
Rain
since 9 am
mm
Dir
 
Spd
km/h
Gust
km/h
Spd
kts
Gust
kts
22/11:30pm 11.3 11.1 9.0 86 1.1 CALM 0 0 0 0 1023.4 1023.3 0.0
22/11:00pm 11.9 10.4 9.3 84 1.3 SW 7 7 4 4 1023.5 1023.4 0.0
22/10:30pm 12.2 10.8 9.4 83 1.4 S 7 9 4 5 1023.5 1023.4 0.0
22/10:00pm 13.4 12.2 9.6 78 1.9 SSE 6 7 3 4 1023.6 1023.5 0.0
22/09:30pm 13.7 12.3 9.7 77 2.1 ESE 7 9 4 5 1023.6 1023.5 0.0
22/09:00pm 14.6 13.1 10.4 76 2.2 E 9 9 5 5 1023.6 1023.5 0.0
22/08:30pm 14.6 13.0 10.2 75 2.3 E 9 11 5 6 1023.5 1023.4 0.0
22/08:00pm 15.4 13.0 10.2 71 2.7 E 13 15 7 8 1023.3 1023.2 0.0
22/07:30pm 16.9 14.2 10.5 66 3.4 E 15 17 8 9 1023.1 1023.0 0.0
22/07:00pm 18.5 15.5 10.8 61 4.1 E 17 22 9 12 1022.9 1022.8 0.0
22/06:30pm 20.2 16.6 10.6 54 5.2 E 20 28 11 15 1022.7 1022.6 0.0
22/06:00pm 21.3 17.7 10.5 50 5.9 E 20 28 11 15 1022.6 1022.5 0.0
22/05:30pm 22.3 18.0 10.8 48 6.3 E 24 32 13 17 1022.5 1022.4 0.0
22/05:00pm 23.2 18.9 10.6 45 6.9 E 24 32 13 17 1022.5 1022.4 0.0
22/04:30pm 23.7 19.9 11.1 45 7.0 SE 22 28 12 15 1022.3 1022.2 0.0
22/04:00pm 23.0 19.6 11.1 47 6.6 ENE 20 26 11 14 1022.4 1022.3 0.0
22/03:30pm 24.0 20.2 9.9 41 7.7 E 20 28 11 15 1022.7 1022.6 0.0
22/03:00pm 24.3 21.8 10.9 43 7.5 E 15 26 8 14 1023.0 1022.9 0.0
22/02:30pm 24.1 20.3 11.1 44 7.3 ESE 22 35 12 19 1023.4 1023.3 0.0
22/02:00pm 23.6 20.2 11.3 46 6.9 ESE 20 30 11 16 1024.0 1023.9 0.0
22/01:30pm 22.4 18.5 12.1 52 5.8 ESE 24 28 13 15 1024.5 1024.4 0.0
22/01:00pm 22.6 19.7 9.7 44 7.0 SE 15 22 8 12 1024.8 1024.7 0.0
22/12:30pm 22.6 20.5 11.0 48 6.4 E 13 20 7 11 1025.5 1025.4 0.0
22/12:00pm 21.8 19.0 11.5 52 5.7 E 17 24 9 13 1026.0 1025.9 0.0
22/11:30am 19.9 16.0 12.2 61 4.3 SE 24 32 13 17 1026.5 1026.4 0.0
22/11:00am 19.8 15.5 12.1 61 4.3 SE 26 39 14 21 1026.6 1026.5 0.0
22/10:30am 21.3 19.6 11.1 52 5.6 E 11 22 6 12 1026.5 1026.4 0.0
22/10:00am 21.6 20.5 11.9 54 5.4 S 9 15 5 8 1026.6 1026.5 0.0
22/09:30am 20.9 20.4 12.8 60 4.6 S 7 19 4 10 1026.6 1026.5 0.0
22/09:00am 18.2 17.0 12.9 71 3.0 S 11 13 6 7 1026.8 1026.7 0.0
22/08:30am 17.7 16.5 12.8 73 2.7 SSW 11 17 6 9 1026.7 1026.6 0.0
22/08:00am 16.7 15.8 13.6 82 1.7 SW 11 15 6 8 1026.5 1026.4 0.0
22/07:30am 15.2 14.8 12.9 86 1.3 S 7 9 4 5 1026.7 1026.6 0.0
22/07:00am 14.5 14.9 12.5 88 1.1 S 2 6 1 3 1026.5 1026.4 0.0
22/06:30am 13.7 13.4 11.4 86 1.2 SE 4 7 2 4 1026.5 1026.4 0.0
22/06:00am 14.3 13.5 11.6 84 1.4 S 7 11 4 6 1026.0 1025.9 0.0
22/05:30am 14.5 13.0 11.8 84 1.5 SW 11 15 6 8 1025.7 1025.6 0.0
22/05:00am 14.8 12.9 11.9 83 1.6 SSW 13 17 7 9 1025.9 1025.8 0.0
22/04:30am 15.0 13.2 12.1 83 1.6 S 13 19 7 10 1026.1 1026.0 0.0
22/04:00am 15.1 14.5 12.2 83 1.6 S 7 9 4 5 1026.3 1026.2 0.0
22/03:30am 15.6 14.6 12.2 80 1.9 S 9 13 5 7 1026.4 1026.3 0.0
22/03:00am 15.5 14.0 11.9 79 1.9 S 11 15 6 8 1026.7 1026.6 0.0
22/02:30am 15.7 14.2 11.9 78 2.1 SW 11 15 6 8 1026.8 1026.7 0.0
22/02:00am 15.7 14.6 11.9 78 2.1 SSW 9 15 5 8 1027.2 1027.1 0.0
22/01:30am 15.8 14.7 12.0 78 2.1 SSW 9 13 5 7 1027.7 1027.6 0.0
22/01:00am 15.6 14.5 12.0 79 1.9 S 9 13 5 7 1028.2 1028.1 0.0
22/12:30am 15.2 14.4 11.8 80 1.8 SSW 7 11 4 6 1028.4 1028.3 0.0
22/12:00am 15.8 14.7 12.0 78 2.1 SSW 9 13 5 7 1028.8 1028.7 0.0
 
Date/Time
EDT
Temp
°C
App
Temp
°C
Dew
Point
Rel
Hum
%
Delta-T
°C
Wind Press
QNH
hPa
Press
MSL
hPa
Rain
since 9 am
mm
Dir
 
Spd
km/h
Gust
km/h
Spd
kts
Gust
kts
21/11:30pm 14.5 13.6 11.3 81 1.7 SSW 7 9 4 5 1029.0 1028.9 0.0
21/11:00pm 14.4 13.6 11.7 84 1.4 SW 7 9 4 5 1029.0 1028.9 0.0
21/10:30pm 13.4 13.6 10.6 83 1.5 CALM 0 0 0 0 1029.2 1029.1 0.0
21/10:00pm 13.9 13.0 10.7 81 1.7 W 6 7 3 4 1029.2 1029.1 0.0
21/09:30pm 14.6 14.9 10.8 78 2.0 CALM 0 0 0 0 1029.0 1028.9 0.0
21/09:00pm 15.4 14.3 10.8 74 2.4 SE 7 11 4 6 1028.9 1028.8 0.0
21/08:30pm 16.7 14.2 11.2 70 3.0 SE 15 19 8 10 1028.7 1028.6 0.0

Other Formats:

Comma delimited format used in spreadsheet applications
http://www.bom.gov.au/fwo/IDN60801/IDN60801.94573.axf

JavaScript Object Notation format (JSON) in row-major order
http://www.bom.gov.au/fwo/IDN60801/IDN60801.94573.json